Weather History for San Jose, Costa Rica

Change the Weather History Date:

Friday, January 1, 2010

  Actual Average Record
Temperature  
Mean Temperature 76 °F -  
Max Temperature 84 °F 80 °F 86 °F (2003)
Min Temperature 67 °F 63 °F 62 °F (2003)
Cooling Degree Days 10    
Growing Degree Days 26 (Base 50)    
Moisture  
Dew Point 59 °F    
Average Humidity 61    
Maximum Humidity 78    
Minimum Humidity 27    
Precipitation  
Precipitation 0.00 in 0.01 in - ()
Sea Level Pressure  
Sea Level Pressure 29.95 in    
Wind  
Wind Speed 9 mph ()    
Max Wind Speed 18 mph    
Max Gust Speed 28 mph    
Visibility 7.6 miles    
Events      
Averages and records for this station are not official NWS values.
T = Trace of Precipitation, MM = Missing Value Source: Averaged Metar Reports

Daily Weather History Graph

Daily Weather History Graph

Search for Another Location

Airport:

Trip Planner

Search our weather history database for the weather conditions in past years. The results will help you decide how hot, cold, wet, or windy it might be!

Date:

Astronomy

Jan. 01, 2010 Rise Set
Actual Time 5:53 AM CST 5:27 PM CST
Civil Twilight 5:31 AM CST 5:49 PM CST
Nautical Twilight 5:04 AM CST 6:16 PM CST
Astronomical Twilight 4:38 AM CST 6:42 PM CST
Moon 6:39 PM CST (1/1) 6:39 AM CST (1/1)
Length of Visible Light 12h 18m
Length of Day
11h 33m
Full, 99% of the Moon is Illuminated
Jan 1
Full
Jan 7
Last Quarter
Jan 15
New
Jan 23
First Quarter
Jan 30
Full

Hourly Weather History & Observations

Time (CST) Temp. Heat Index Dew Point Humidity Pressure Visibility Wind Dir Wind Speed Gust Speed Precip Events Conditions
12:00 AM 70 °F - 61 °F 65% 29.83 in 12 mi ESE 8.1 mph - -   Scattered Clouds
12:00 AM 69.8 °F - 60.8 °F 73% 30.03 in 6.2 mi ESE 8.1 mph - N/A   Partly Cloudy
1:00 AM 69.8 °F - 60.8 °F 73% 30.00 in 6.2 mi East 3.5 mph - N/A   Partly Cloudy
2:00 AM 68.0 °F - 60.8 °F 78% 29.98 in 6.2 mi East 5.8 mph - N/A   Unknown
3:00 AM 68 °F - 61 °F 71% 29.80 in 12 mi ENE 6.9 mph - -  
3:00 AM 68.0 °F - 60.8 °F 78% 29.98 in 6.2 mi ENE 6.9 mph - N/A   Unknown
4:00 AM 68.0 °F - 60.8 °F 78% 29.98 in 6.2 mi ESE 4.6 mph - N/A   Unknown
5:00 AM 68.0 °F - 60.8 °F 78% 29.99 in 6.2 mi ENE 5.8 mph - N/A   Unknown
6:00 AM 68 °F - 61 °F 71% 29.85 in 12 mi ENE 3.5 mph - -   Scattered Clouds
6:00 AM 68.0 °F - 60.8 °F 78% 30.01 in 6.2 mi ENE 3.5 mph - N/A   Partly Cloudy
7:00 AM 71.6 °F - 60.8 °F 69% 30.02 in 6.2 mi East 8.1 mph - N/A   Unknown
8:00 AM 75.2 °F - 62.6 °F 65% 30.04 in 6.2 mi ESE 12.7 mph - N/A   Unknown
9:00 AM 77 °F - 63 °F 52% 29.87 in 9 mi East 18.4 mph - -   Scattered Clouds
9:00 AM 77.0 °F - 62.6 °F 61% 30.05 in 6.2 mi East 18.4 mph - N/A   Partly Cloudy
10:00 AM 78.8 °F - 60.8 °F 54% 30.04 in 6.2 mi East 16.1 mph 27.6 mph N/A   Partly Cloudy
11:00 AM 80.6 °F 81.5 °F 60.8 °F 51% 30.03 in 6.2 mi East 16.1 mph - N/A   Partly Cloudy
12:00 PM 81 °F - 57 °F 34% 29.83 in 12 mi East 17.3 mph - -   Scattered Clouds
12:00 PM 80.6 °F 80.8 °F 57.2 °F 45% 30.00 in 6.2 mi East 17.3 mph - N/A   Partly Cloudy
1:00 PM 82.4 °F 81.4 °F 53.6 °F 37% 29.97 in 6.2 mi East 15.0 mph - N/A   Partly Cloudy
2:00 PM 84.2 °F - 50.0 °F 30% 29.95 in 6.2 mi East 16.1 mph - N/A   Partly Cloudy
3:00 PM 82 °F - 54 °F 27% 29.78 in 12 mi East 13.8 mph - -   Scattered Clouds
3:00 PM 82.4 °F 81.4 °F 53.6 °F 37% 29.95 in - East 13.8 mph - N/A   Clear
4:00 PM 78.8 °F - 55.4 °F 44% 29.95 in 6.2 mi ESE 12.7 mph - N/A   Partly Cloudy
5:00 PM 75.2 °F - 57.2 °F 53% 29.96 in 6.2 mi East 11.5 mph - N/A   Partly Cloudy
6:00 PM 69.8 °F - 57.2 °F 64% 29.97 in - SSE 6.9 mph - N/A   Clear
7:00 PM 70 °F - 57 °F 55% 29.82 in 12 mi SSE 6.9 mph - -   Scattered Clouds
7:00 PM 69.8 °F - 59.0 °F 68% 29.99 in 6.2 mi East 6.9 mph - N/A   Unknown
8:00 PM 69.8 °F - 60.8 °F 73% 30.00 in 6.2 mi ESE 11.5 mph - N/A   Unknown
9:00 PM 70 °F - 61 °F 65% 29.85 in 12 mi ESE 13.8 mph - -  
9:00 PM 69.8 °F - 60.8 °F 73% 30.01 in 6.2 mi ESE 13.8 mph - N/A   Unknown
10:00 PM 69.8 °F - 60.8 °F 73% 30.00 in 6.2 mi ESE 10.4 mph 21.9 mph N/A   Partly Cloudy
11:00 PM 71.6 °F - 60.8 °F 69% 29.98 in 6.2 mi ESE 16.1 mph - N/A   Partly Cloudy